Home   Weather   Babylon   Past weeks

Flag for USA Past Weather in Babylon, New York, USA — Yesterday and Last 2 Weeks

Now
45 °F

Fog.


Feels Like: 45 °F
Forecast: 42 / 47 °F
Wind: No wind

Location: Republic Airport

Current Time: Jan 21, 2017 at 10:51:05 pm

Latest Report: Jan 21, 2017 at 9:53 pm


Visibility: 0 mi

Pressure: 29.80 "Hg

Humidity: 100%

Dew Point: 45 °F

Location of BabylonLocation

Past Weather in Babylon — Graph

°F

Babylon Temperature Yesterday

Maximum temperature yesterday: 44 °F (at 12:53 pm)
Minimum temperature yesterday: 40 °F (at 1:53 am)
Average temperature yesterday: 41 °F

High & Low Weather Summary for the Past Weeks

 TemperatureHumidityPressure
High59 °F (Jan 13, 12:53 am)100% (Jan 18, 1:04 am)30.76 "Hg (Jan 18, 1:04 am)
Low8 °F (Jan 10, 2:53 am)34% (Jan 13, 1:53 pm)29.80 "Hg (Jan 21, 1:53 pm)
Average36 °F75%30.23 "Hg
* Reported Jan 6 8:53 pm — Jan 21 8:53 pm, Babylon, Weather by CustomWeather, © 2017

Note: Actual official high and low records may vary slightly from our data, if they occured in-between our weather recording intervals... More about our weather records

Advertising

Babylon Weather History for the Previous 24 Hours

Scroll right to see more
 ConditionsComfort  
Time TempWeatherWind HumidityBarometerVisibility
8:53 pm
Sat, Jan 21
45 °FFog.5 mph97%29.81 "Hg0 mi
7:53 pm45 °FFog.6 mph97%29.82 "Hg0 mi
6:53 pm45 °FFog.5 mph97%29.82 "Hg1 mi
6:35 pm45 °FFog.7 mph93%29.82 "Hg1 mi
6:16 pm45 °FFog.6 mph93%29.82 "Hg1 mi
5:53 pm45 °FFog.7 mph93%29.82 "Hg2 mi
5:00 pm45 °FFog.7 mph90%29.82 "Hg2 mi
3:53 pm46 °FFog.8 mph86%29.81 "Hg2 mi
3:44 pm46 °FFog.9 mph86%29.82 "Hg2 mi
3:26 pm46 °FFog.10 mph86%29.82 "Hg2 mi
3:11 pm47 °FHaze.10 mph83%29.81 "Hg2 mi
2:53 pm49 °FSunny.12 mph80%29.81 "Hg7 mi
1:53 pm52 °FSunny.3 mph75%29.80 "Hg8 mi
12:53 pm51 °FSunny.6 mph77%29.83 "Hg8 mi
12:32 pm49 °FScattered clouds.7 mph84%29.84 "Hg8 mi
12:03 pm48 °FPartly sunny.9 mph86%29.86 "Hg7 mi
11:53 am48 °FLow clouds.8 mph83%29.86 "Hg2 mi
10:53 am46 °FLow clouds.8 mph89%29.87 "Hg2 mi
9:53 am46 °FFog.7 mph89%29.89 "Hg2 mi
8:53 am44 °FFog.8 mph93%29.88 "Hg2 mi
7:53 am43 °FFog.6 mph97%29.89 "Hg2 mi
7:04 am43 °FFog.6 mph93%29.89 "Hg2 mi
6:53 am43 °FFog.6 mph93%29.89 "Hg5 mi
5:53 am43 °FFog.5 mph93%29.87 "Hg5 mi
4:53 am43 °FLow clouds.8 mph93%29.89 "Hg7 mi
3:53 am43 °FFog.5 mph93%29.90 "Hg6 mi
3:16 am42 °FFog.3 mph100%29.90 "Hg5 mi
2:53 am42 °FFog.3 mph96%29.91 "Hg6 mi
2:36 am43 °FOvercast.5 mph93%29.92 "Hg7 mi
1:53 am42 °FOvercast.8 mph96%29.92 "Hg8 mi
12:53 am42 °FLight rain. Fog.5 mph96%29.92 "Hg3 mi
11:53 pm
Fri, Jan 20
42 °FFog.No wind92%29.91 "Hg4 mi
10:53 pm41 °FLight rain. Fog.No wind93%29.93 "Hg3 mi
10:19 pm41 °FLight rain. Fog.No wind93%29.93 "Hg3 mi
10:00 pm41 °FFog.No wind93%29.93 "Hg3 mi
Weather by CustomWeather, © 2017

See weather overviewHow to use our weather pages